Starlink 34764

operational
NORAD ID: 65098 Int'l Des: 2025-167 Owner: SPXS Country: US Constellation: starlink
LEOCIRCULAR

关于 Starlink 34764

正在加载描述...

实时位置

正在加载3D地球...

即将过境

高度历史

Altitude vs Time

uPlot chart will show altitude changes over time

两行轨道根数

1 65098U 25167W 25340.63865511 .00055864 00000-0 18830-2 0 9998
2 65098 53.1592 98.8432 0001077 70.0778 290.0338 15.30219566 19231
Epoch: Dec 6, 2025 • Age: 18 hours

当前状态

高度 493.3 km
速度 7.62 km/s
星下点 -50.95°S, 120.33°E
发射日期 Aug 4, 2025
运行时间 0.3 years
类型 internet

技术详情

分类 Payload
质量 575.00 kg
干质量 530.00 kg
总质量 575.00 kg
长度 0.30 m
直径 4.10 m
跨度 29.00 m
形状 Box + pan
制造商 SPXS
平台类型 Starlink V2MO
阶段状态 In Orbit
所有者/国家 SPXS/US

大型星座

Loading constellations...